Minchumina, AK

5:07 AM AKDT on March 28, 2017 (GMT -0800)
Minchumina

Weather History for PAMH - January, 2013

Change the Weather History Date:

Thursday, January 24, 2013

  Actual Average Record
Temperature  
Mean Temperature -6 °F -  
Max Temperature 0 °F 2 °F 32 °F (1999)
Min Temperature -13 °F -6 °F -40 °F (2006)
Degree Days  
Heating Degree Days 72    
Moisture  
Dew Point -15 °F    
Average Humidity 69    
Maximum Humidity 92    
Minimum Humidity 59    
Precipitation  
Precipitation 0.02 in - - ()
Sea Level Pressure  
Sea Level Pressure 29.76 in    
Wind  
Wind Speed 3 mph (NE)    
Max Wind Speed 6 mph    
Max Gust Speed -    
Visibility 8 miles    
Events      
Averages and records for this station are not official NWS values.
T = Trace of Precipitation, MM = Missing Value Source: NWS Daily Summary

Daily Weather History Graph

Daily Weather History Graph

Search for Another Location

Airport or City:

Trip Planner

Search our weather history database for the weather conditions in past years. The results will help you decide how hot, cold, wet, or windy it might be!

Date:

Astronomy

Jan. 24, 2013 Rise Set
Actual Time 10:09 AM AKST 4:34 PM AKST
Civil Twilight 9:08 AM AKST 5:34 PM AKST
Nautical Twilight 8:08 AM AKST 6:35 PM AKST
Astronomical Twilight 7:12 AM AKST 7:31 PM AKST
Moon 2:32 PM AKST (1/24) 8:30 AM AKST (1/24)
Length of Visible Light 8h 25m
Length of Day
6h 25m
Waxing Gibbous, 95% of the Moon is Illuminated
Jan 24
Waxing Gibbous
Jan 26
Full
Feb 3
Last Quarter
Feb 9
New
Feb 17
First Quarter

Hourly Weather History & Observations

Time (AKST) Temp. Windchill Dew Point Humidity Pressure Visibility Wind Dir Wind Speed Gust Speed Precip Events Conditions
12:16 AM -0.4 °F -10.4 °F -9.4 °F 66% 29.62 in 10.0 mi NE 4.6 mph - N/A   Overcast
12:36 AM -0.4 °F -10.4 °F -11.2 °F 60% 29.63 in 10.0 mi NE 4.6 mph - N/A   Overcast
12:56 AM -0.4 °F -10.4 °F -9.4 °F 66% 29.63 in 10.0 mi NE 4.6 mph - N/A   Overcast
1:16 AM -0.4 °F -10.4 °F -11.2 °F 60% 29.63 in 10.0 mi NE 4.6 mph - N/A   Overcast
1:36 AM -0.4 °F - -11.2 °F 60% 29.64 in 10.0 mi Calm Calm - N/A   Overcast
1:56 AM -2.2 °F -10.4 °F -11.2 °F 66% 29.64 in 10.0 mi NE 3.5 mph - N/A   Overcast
2:16 AM -2.2 °F -12.5 °F -11.2 °F 66% 29.65 in 10.0 mi NE 4.6 mph - N/A   Overcast
2:36 AM -2.2 °F -10.4 °F -11.2 °F 66% 29.65 in 10.0 mi NE 3.5 mph - N/A   Overcast
3:16 AM -2.2 °F -14.2 °F -11.2 °F 66% 29.66 in 4.0 mi NE 5.8 mph - N/A   Overcast
3:36 AM -2.2 °F -10.4 °F -11.2 °F 66% 29.66 in 3.0 mi NE 3.5 mph - N/A   Overcast
3:56 AM -2.2 °F -10.4 °F -9.4 °F 71% 29.66 in 2.5 mi NE 3.5 mph - N/A   Overcast
4:16 AM -2.2 °F -12.5 °F -9.4 °F 71% 29.67 in 1.5 mi NE 4.6 mph - N/A   Overcast
4:36 AM -2.2 °F - -9.4 °F 71% 29.67 in 1.0 mi Calm Calm - N/A   Overcast
4:56 AM -4.0 °F -12.4 °F -9.4 °F 78% 29.67 in 0.8 mi NE 3.5 mph - N/A   Overcast
5:16 AM -4.0 °F -14.6 °F -9.4 °F 78% 29.67 in 0.5 mi NE 4.6 mph - N/A   Overcast
5:36 AM -4.0 °F -16.3 °F -9.4 °F 78% 29.67 in 0.8 mi NE 5.8 mph - N/A   Overcast
5:56 AM -4.0 °F -14.6 °F -9.4 °F 78% 29.68 in 0.5 mi NE 4.6 mph - N/A   Overcast
6:16 AM -4.0 °F - -7.6 °F 85% 29.68 in 0.5 mi Calm Calm - N/A   Overcast
6:36 AM -4.0 °F -14.6 °F -9.4 °F 78% 29.68 in 0.8 mi NE 4.6 mph - 0.01 in   Overcast
6:56 AM -4.0 °F -12.4 °F -9.4 °F 78% 29.69 in 1.2 mi NNE 3.5 mph - 0.01 in   Overcast
7:16 AM -4.0 °F -14.6 °F -9.4 °F 78% 29.70 in 0.5 mi NE 4.6 mph - N/A   Overcast
7:36 AM -5.8 °F - -7.6 °F 92% 29.70 in 0.5 mi Calm Calm - N/A   Overcast
7:56 AM -5.8 °F -16.7 °F -9.4 °F 84% 29.70 in 0.8 mi NE 4.6 mph - N/A   Overcast
8:16 AM -5.8 °F -14.5 °F -9.4 °F 84% 29.71 in 1.0 mi NE 3.5 mph - 0.01 in   Overcast
8:36 AM -5.8 °F -14.5 °F -11.2 °F 77% 29.71 in 4.0 mi NE 3.5 mph - 0.01 in   Mostly Cloudy
8:56 AM -5.8 °F -14.5 °F -13.0 °F 71% 29.72 in 9.0 mi NE 3.5 mph - 0.01 in   Overcast
9:16 AM -5.8 °F -14.5 °F -13.0 °F 71% 29.72 in 5.0 mi NE 3.5 mph - N/A   Overcast
9:36 AM -5.8 °F -14.5 °F -13.0 °F 71% 29.72 in 10.0 mi NNE 3.5 mph - N/A   Overcast
9:56 AM -5.8 °F -14.5 °F -14.8 °F 65% 29.73 in 10.0 mi NE 3.5 mph - N/A   Overcast
10:16 AM -5.8 °F -14.5 °F -14.8 °F 65% 29.73 in 10.0 mi NNE 3.5 mph - N/A   Overcast
10:36 AM -5.8 °F -14.5 °F -14.8 °F 65% 29.74 in 10.0 mi North 3.5 mph - N/A   Overcast
10:56 AM -5.8 °F -14.5 °F -16.6 °F 60% 29.75 in 10.0 mi NNE 3.5 mph - N/A   Overcast
11:16 AM -5.8 °F - -16.6 °F 60% 29.75 in 10.0 mi Calm Calm - N/A   Overcast
11:36 AM -7.6 °F - -16.6 °F 65% 29.76 in 10.0 mi Calm Calm - N/A   Overcast
11:56 AM -7.6 °F -16.5 °F -16.6 °F 65% 29.77 in 10.0 mi NNE 3.5 mph - N/A   Overcast
12:16 PM -7.6 °F -16.5 °F -16.6 °F 65% 29.77 in 10.0 mi NNE 3.5 mph - N/A   Overcast
12:36 PM -7.6 °F - -18.4 °F 59% 29.78 in 10.0 mi Calm Calm - N/A   Overcast
12:56 PM -7.6 °F - -16.6 °F 65% 29.78 in 10.0 mi Calm Calm - N/A   Overcast
1:16 PM -9.4 °F - -18.4 °F 65% 29.79 in 10.0 mi Calm Calm - N/A   Mostly Cloudy
1:36 PM -9.4 °F - -18.4 °F 65% 29.79 in 10.0 mi Calm Calm - N/A   Scattered Clouds
1:56 PM -9.4 °F - -16.6 °F 71% 29.79 in 10.0 mi Calm Calm - N/A   Scattered Clouds
2:16 PM -9.4 °F - -18.4 °F 65% 29.80 in 10.0 mi Calm Calm - N/A   Scattered Clouds
2:36 PM -7.6 °F - -16.6 °F 65% 29.80 in 10.0 mi Calm Calm - N/A   Partly Cloudy
2:56 PM -7.6 °F - -16.6 °F 65% 29.80 in 10.0 mi Calm Calm - N/A   Mostly Cloudy
3:16 PM -5.8 °F - -14.8 °F 65% 29.80 in 10.0 mi Calm Calm - N/A   Overcast
3:36 PM -5.8 °F - -16.6 °F 60% 29.81 in 10.0 mi Calm Calm - N/A   Overcast
3:56 PM -7.6 °F - -18.4 °F 59% 29.81 in 10.0 mi Calm Calm - N/A   Overcast
4:16 PM -7.6 °F - -18.4 °F 59% 29.81 in 10.0 mi Calm Calm - N/A   Overcast
4:36 PM -9.4 °F - -18.4 °F 65% 29.81 in 10.0 mi Calm Calm - N/A   Mostly Cloudy
4:56 PM -9.4 °F - -18.4 °F 65% 29.82 in 10.0 mi Calm Calm - N/A   Mostly Cloudy
5:16 PM -11.2 °F - -18.4 °F 70% 29.82 in 10.0 mi Calm Calm - N/A   Scattered Clouds
5:36 PM -11.2 °F - -18.4 °F 70% 29.83 in 10.0 mi Calm Calm - N/A   Clear
5:56 PM -11.2 °F - -20.2 °F 64% 29.83 in 10.0 mi Calm Calm - N/A   Clear
6:16 PM -11.2 °F - -20.2 °F 64% 29.83 in 10.0 mi Calm Calm - N/A   Clear
6:36 PM -11.2 °F - -18.4 °F 70% 29.84 in 10.0 mi Calm Calm - N/A   Clear
6:56 PM -11.2 °F - -18.4 °F 70% 29.84 in 10.0 mi Calm Calm - N/A   Clear
7:16 PM -11.2 °F - -18.4 °F 70% 29.84 in 10.0 mi Calm Calm - N/A   Clear
7:36 PM -11.2 °F - -16.6 °F 77% 29.85 in 10.0 mi Calm Calm - N/A   Clear
7:56 PM -11.2 °F - -20.2 °F 64% 29.85 in 10.0 mi Calm Calm - N/A   Clear
8:16 PM -11.2 °F - -18.4 °F 70% 29.85 in 10.0 mi Calm Calm - N/A   Clear
8:36 PM -11.2 °F - -20.2 °F 64% 29.85 in 10.0 mi Calm Calm - N/A   Clear
8:56 PM -11.2 °F -20.6 °F -20.2 °F 64% 29.85 in 10.0 mi North 3.5 mph - N/A   Clear
9:16 PM -11.2 °F - -18.4 °F 70% 29.86 in 10.0 mi Calm Calm - N/A   Clear
9:36 PM -13.0 °F - -20.2 °F 70% 29.86 in 10.0 mi Calm Calm - N/A   Clear
9:56 PM -13.0 °F - -20.2 °F 70% 29.86 in 10.0 mi Calm Calm - N/A   Clear
10:16 PM -13.0 °F - -20.2 °F 70% 29.86 in 10.0 mi Calm Calm - N/A   Clear
10:36 PM -13.0 °F - -20.2 °F 70% 29.87 in 10.0 mi Calm Calm - N/A   Clear
10:56 PM -13.0 °F - -20.2 °F 70% 29.87 in 10.0 mi Calm Calm - N/A   Clear
11:16 PM -11.2 °F - -18.4 °F 70% 29.87 in 10.0 mi Calm Calm - N/A   Clear
11:36 PM -11.2 °F - -18.4 °F 70% 29.88 in 10.0 mi Calm Calm - N/A   Clear
11:56 PM -13.0 °F - -20.2 °F 70% 29.88 in 10.0 mi Calm Calm - N/A   Clear